Stations météo

réclame
Mon MeteoGroup
Koksijde, Belgique (6400): Température de l'air & dewpoint: 14.07.2018 22:00:00 - 20.07.2018 22:00:00 (CEST)Koksijde, Belgique (6400): Vitesse du vent & gusts: 14.07.2018 22:00:00 - 20.07.2018 22:00:00 (CEST)Koksijde, Belgique (6400): Direction du vent: 14.07.2018 22:00:00 - 20.07.2018 22:00:00 (CEST)Koksijde, Belgique (6400): reduced air pressure: 14.07.2018 22:00:00 - 20.07.2018 22:00:00 (CEST)Koksijde, Belgique (6400): visibility: 14.07.2018 22:00:00 - 20.07.2018 22:00:00 (CEST)
Date & Time tt [°C] td [°C] ff [km/h] ff [knt] fx [km/h] fx [knt] dd ppp [hPa] vv [km]
20.07.2018 22:00:00 19,2 12,1 4 2 14 8 N 1013,2 19
20.07.2018 21:00:00 19,7 11,6 11 6 18 10 N 1013,1 17
20.07.2018 20:00:00 19,8 12,4 11 6 - - NNE 1013,3 20
20.07.2018 19:00:00 20,2 13,1 7 4 14 8 N 1013,6 13
20.07.2018 18:00:00 20,3 13,1 11 6 14 8 N 1014,0 18
20.07.2018 17:00:00 20,2 14,6 7 4 - - NNW 1014,6 12
20.07.2018 16:00:00 19,6 13,8 7 4 14 8 NW 1015,1 13
20.07.2018 15:00:00 20,6 14,4 4 2 11 6 N 1015,5 13
20.07.2018 14:00:00 21,2 12,6 4 2 - - N 1015,6 15
20.07.2018 13:00:00 22,8 12,4 7 4 11 6 N 1015,6 15
20.07.2018 12:00:00 22,7 13,3 7 4 11 6 N 1015,5 15
20.07.2018 11:00:00 21,9 12,6 4 2 - - N 1015,3 10
20.07.2018 10:00:00 20,5 13,5 4 2 11 6 N 1015,7 7
20.07.2018 09:00:00 18,3 14,2 7 4 11 6 E 1015,8 6
20.07.2018 08:00:00 17,4 13,2 4 2 - - N 1016,0 6
20.07.2018 07:00:00 15,0 13,0 0 0 7 4 N 1016,0 6
20.07.2018 06:00:00 13,5 11,5 4 2 7 4 N 1016,2 6
20.07.2018 05:00:00 13,7 11,7 7 4 - - ENE 1016,2 5
20.07.2018 04:00:00 13,8 11,5 7 4 7 4 E 1016,7 7
20.07.2018 03:00:00 14,3 11,8 8 4 7 4 NE 1016,7 7
20.07.2018 02:00:00 14,1 11,5 7 4 - - NE 1017,2 9
20.07.2018 01:00:00 14,8 11,5 4 2 11 6 N 1017,7 10
20.07.2018 00:00:00 15,6 11,2 7 4 11 6 ENE 1017,7 15
19.07.2018 23:00:00 17,1 10,7 7 4 - - NE 1017,7 16
19.07.2018 22:00:00 18,5 11,3 11 6 22 12 NE 1017,8 18
19.07.2018 21:00:00 20,0 11,8 14 8 22 12 NE 1018,0 19
19.07.2018 20:00:00 21,6 10,2 14 8 - - NE 1018,2 19
19.07.2018 19:00:00 22,6 10,3 18 10 25 14 NNE 1018,2 15
19.07.2018 18:00:00 23,1 10,5 18 10 29 16 NNE 1018,6 17
19.07.2018 17:00:00 23,0 12,1 22 12 - - NNE 1018,8 20
19.07.2018 16:00:00 23,9 8,9 18 10 25 14 NNE 1019,2 20
19.07.2018 15:00:00 24,0 8,5 18 10 25 14 NNE 1019,5 20
19.07.2018 14:00:00 23,3 9,8 14 8 - - NNE 1019,7 20
19.07.2018 13:00:00 23,6 10,4 14 8 22 12 NNE 1019,7 20
19.07.2018 12:00:00 23,2 11,9 14 8 22 12 N 1019,7 20
19.07.2018 11:00:00 22,5 11,6 11 6 - - NNE 1019,6 20
19.07.2018 10:00:00 21,4 12,6 7 4 14 8 ENE 1019,7 15
19.07.2018 09:00:00 19,6 14,6 4 2 7 4 N 1019,7 8
19.07.2018 08:00:00 16,4 14,0 4 2 - - N 1019,8 5
19.07.2018 07:00:00 12,0 11,1 0 0 0 0 N 1019,7 0,2
19.07.2018 06:00:00 12,1 11,0 4 2 4 2 N 1019,6 3,5
19.07.2018 05:00:00 12,6 11,4 2 1 - - - 1019,7 0,6
19.07.2018 04:00:00 13,1 11,6 4 2 4 2 N 1019,7 4,8
19.07.2018 03:00:00 14,1 12,4 4 2 4 2 N 1019,8 2,9
19.07.2018 02:00:00 14,1 12,0 4 2 - - N 1020,0 10
19.07.2018 01:00:00 15,1 12,6 4 2 7 4 N 1019,7 11
19.07.2018 00:00:00 15,5 12,7 4 2 7 4 N 1019,7 14
18.07.2018 23:00:00 16,8 13,4 4 2 - - N 1019,6 12
18.07.2018 22:00:00 16,7 12,4 7 4 11 6 NNE 1019,5 17
18.07.2018 21:00:00 19,2 12,7 7 4 14 8 N 1019,2 19
18.07.2018 20:00:00 20,8 12,4 11 6 - - N 1019,2 19
18.07.2018 19:00:00 21,2 11,3 11 6 18 10 N 1019,2 18
18.07.2018 18:00:00 21,9 11,1 11 6 22 12 N 1019,2 20
18.07.2018 17:00:00 22,0 11,9 14 8 - - NNW 1019,5 20
18.07.2018 16:00:00 20,8 12,8 11 6 18 10 NNW 1019,3 20
18.07.2018 15:00:00 21,5 13,2 11 6 18 10 N 1019,5 20
18.07.2018 14:00:00 21,6 13,1 11 6 - - NW 1019,5 20
18.07.2018 13:00:00 21,2 12,6 11 6 22 12 WNW 1019,6 15
18.07.2018 12:00:00 21,3 12,7 11 6 22 12 WNW 1019,5 15
18.07.2018 11:00:00 20,3 13,3 14 8 - - W 1019,5 15
18.07.2018 10:00:00 19,7 14,6 14 8 22 12 W 1019,6 15
18.07.2018 09:00:00 17,4 13,9 7 4 11 6 WSW 1019,3 15
18.07.2018 08:00:00 14,3 12,3 7 4 - - WSW 1019,0 15
18.07.2018 07:00:00 12,3 11,1 7 4 11 6 SW 1018,7 8
18.07.2018 06:00:00 11,6 10,3 4 2 7 4 N 1018,6 8
18.07.2018 05:00:00 11,6 10,1 4 2 - - N 1018,3 9
18.07.2018 04:00:00 11,6 10,0 4 2 7 4 N 1018,5 9
18.07.2018 03:00:00 11,9 10,0 7 4 11 6 SW 1018,7 14
18.07.2018 02:00:00 12,3 9,7 4 2 - - N 1018,7 18
18.07.2018 01:00:00 13,1 9,8 11 6 11 6 SSW 1018,6 20
18.07.2018 00:00:00 14,4 9,5 7 4 14 8 SW 1018,5 20
17.07.2018 23:00:00 15,0 9,1 7 4 - - SW 1018,2 20
17.07.2018 22:00:00 17,9 8,7 11 6 22 12 WSW 1018,1 18
17.07.2018 21:00:00 19,7 8,5 14 8 25 14 WSW 1018,1 20
17.07.2018 20:00:00 20,6 11,7 22 12 - - W 1017,5 16
17.07.2018 19:00:00 21,0 10,9 22 12 36 19 W 1017,3 17
17.07.2018 18:00:00 21,5 11,4 22 12 40 21 WNW 1017,2 17
17.07.2018 17:00:00 21,9 11,4 25 14 - - WNW 1017,3 20
17.07.2018 16:00:00 22,5 10,2 22 12 29 16 WNW 1017,6 20
17.07.2018 15:00:00 22,4 10,1 22 12 32 18 WNW 1017,5 20
17.07.2018 14:00:00 21,3 10,4 22 12 - - W 1017,5 20
17.07.2018 13:00:00 20,2 12,0 25 14 40 21 W 1017,2 20
17.07.2018 12:00:00 19,9 11,8 29 16 40 21 W 1016,7 20
17.07.2018 11:00:00 20,5 12,5 22 12 - - WNW 1016,1 20
17.07.2018 10:00:00 19,5 13,1 22 12 29 16 W 1015,7 20
17.07.2018 09:00:00 19,6 13,4 14 8 22 12 WSW 1015,2 20
17.07.2018 08:00:00 17,7 15,3 11 6 - - SW 1015,1 8
17.07.2018 07:00:00 16,2 15,1 7 4 11 6 SW 1014,7 4,5
17.07.2018 06:00:00 15,0 13,6 7 4 18 10 SW 1014,2 4,0
17.07.2018 05:00:00 14,3 11,9 11 6 - - SW 1014,1 5
17.07.2018 04:00:00 14,8 11,4 7 4 14 8 SW 1014,2 12
17.07.2018 03:00:00 15,1 10,2 11 6 18 10 SSW 1014,2 16
17.07.2018 02:00:00 16,3 9,5 7 4 - - WSW 1014,3 19
17.07.2018 01:00:00 17,7 9,3 11 6 18 10 SW 1014,5 20
17.07.2018 00:00:00 18,2 10,1 7 4 18 10 SSW 1014,2 19
16.07.2018 23:00:00 20,1 9,4 11 6 - - SW 1014,1 20
16.07.2018 22:00:00 21,7 10,2 11 6 18 10 WSW 1013,8 18
16.07.2018 21:00:00 22,1 12,3 7 4 25 14 WNW 1013,2 19
16.07.2018 20:00:00 22,2 13,0 14 8 - - WNW 1013,1 19
16.07.2018 19:00:00 23,2 14,1 11 6 22 12 NW 1012,7 20
16.07.2018 18:00:00 23,8 14,2 14 8 22 12 WNW 1012,8 20
16.07.2018 17:00:00 25,2 11,9 14 8 - - NNW 1012,7 20
16.07.2018 16:00:00 25,6 13,2 11 6 18 10 NNW 1013,1 20
16.07.2018 15:00:00 25,1 11,6 11 6 18 10 NNW 1013,2 10
16.07.2018 14:00:00 25,5 10,5 11 6 - - NNW 1013,5 20
16.07.2018 13:00:00 25,7 11,8 14 8 18 10 NNW 1013,6 20
16.07.2018 12:00:00 25,7 13,9 11 6 18 10 N 1013,7 20
16.07.2018 11:00:00 25,3 12,3 4 2 - - N 1013,7 20
16.07.2018 10:00:00 23,0 15,0 4 2 4 2 N 1013,7 20
16.07.2018 09:00:00 20,5 15,7 4 2 4 2 N 1013,8 20
16.07.2018 08:00:00 18,8 15,3 4 2 - - N 1013,8 20
16.07.2018 07:00:00 16,7 13,5 4 2 4 2 N 1014,0 20
16.07.2018 06:00:00 17,0 13,5 4 2 7 4 N 1014,1 20
16.07.2018 05:00:00 16,8 12,7 7 4 - - WNW 1014,2 11
16.07.2018 04:00:00 15,8 11,7 4 2 4 2 N 1014,3 10
16.07.2018 03:00:00 16,5 12,3 4 2 0 0 N 1014,5 10
16.07.2018 02:00:00 18,0 12,3 4 2 - - N 1014,7 12
16.07.2018 01:00:00 18,7 12,3 4 2 4 2 N 1015,1 11
16.07.2018 00:00:00 20,0 12,3 0 0 7 4 N 1015,2 13
15.07.2018 23:00:00 20,6 12,3 4 2 - - N 1015,1 14
15.07.2018 22:00:00 22,0 12,1 4 2 11 6 - 1015,2 3,5
15.07.2018 21:00:00 23,7 11,2 7 4 18 10 ENE 1014,8 13
15.07.2018 20:00:00 26,0 11,2 11 6 - - NE 1014,7 14
15.07.2018 19:00:00 26,3 10,8 18 10 22 12 NNE 1014,7 14
15.07.2018 18:00:00 27,2 11,5 14 8 22 12 NNE 1015,0 8
15.07.2018 17:00:00 27,3 11,2 18 10 - - NNE 1015,5 20
15.07.2018 16:00:00 27,3 11,7 18 10 25 14 NNE 1015,8 20
15.07.2018 15:00:00 26,5 11,2 14 8 22 12 N 1016,2 19
15.07.2018 14:00:00 26,9 11,2 14 8 - - N 1016,7 17
15.07.2018 13:00:00 26,6 11,2 11 6 18 10 N 1017,0 17
15.07.2018 12:00:00 26,2 12,4 11 6 14 8 N 1017,2 18
15.07.2018 11:00:00 25,3 13,4 4 2 - - N 1017,3 11
15.07.2018 10:00:00 23,2 13,7 4 2 7 4 N 1017,6 9
15.07.2018 09:00:00 19,5 14,0 7 4 11 6 ESE 1017,7 11
15.07.2018 08:00:00 16,9 14,0 4 2 - - - 1017,7 5
15.07.2018 07:00:00 14,1 12,8 4 2 4 2 N 1017,5 3,8
15.07.2018 06:00:00 13,3 12,1 2 1 4 2 - 1017,3 3,8
15.07.2018 05:00:00 13,6 12,1 4 2 - - N 1017,7 4,3
15.07.2018 04:00:00 14,1 12,5 4 2 4 2 N 1018,0 4,6
15.07.2018 03:00:00 14,5 12,7 4 2 4 2 N 1018,2 4,0
15.07.2018 02:00:00 15,0 13,0 4 2 - - N 1018,6 5
15.07.2018 01:00:00 14,8 12,5 7 4 7 4 E 1018,7 6
15.07.2018 00:00:00 16,2 13,4 7 4 11 6 ENE 1018,7 9
14.07.2018 23:00:00 16,7 13,5 7 4 - - NE 1018,8 9
14.07.2018 22:00:00 18,5 15,0 11 6 22 12 NE 1018,7 12

tt = Température de l'air
td = dewpoint
ff = Vitesse du vent
fx = gusts
dd = Direction du vent
ppp = reduced air pressure
vv = visibility

stations d'obs. à proximité